Council Bluffs, IA

12:32 AM CDT on June 24, 2017 (GMT -0500)
Council Bluffs Municipal

Weather History for KCBF - February, 2013

Change the Weather History Date:

Thursday, February 28, 2013

  Actual Average Record
Temperature  
Mean Temperature 27 °F -  
Max Temperature 30 °F 36 °F 64 °F (2006)
Min Temperature 24 °F 21 °F 1 °F (2001)
Degree Days  
Heating Degree Days 38    
Moisture  
Dew Point 23 °F    
Average Humidity 81    
Maximum Humidity 86    
Minimum Humidity 74    
Precipitation  
Precipitation 0.00 in - - ()
Sea Level Pressure  
Sea Level Pressure 30.16 in    
Wind  
Wind Speed 15 mph (NNW)    
Max Wind Speed 21 mph    
Max Gust Speed 32 mph    
Visibility 10 miles    
Events      
Averages and records for this station are not official NWS values.
T = Trace of Precipitation, MM = Missing Value Source: NWS Daily Summary

Daily Weather History Graph

Daily Weather History Graph

Search for Another Location

Airport or City:

Trip Planner

Search our weather history database for the weather conditions in past years. The results will help you decide how hot, cold, wet, or windy it might be!

Date:

Astronomy

Feb. 28, 2013 Rise Set
Actual Time 6:58 AM CST 6:13 PM CST
Civil Twilight 6:30 AM CST 6:40 PM CST
Nautical Twilight 5:58 AM CST 7:12 PM CST
Astronomical Twilight 5:26 AM CST 7:44 PM CST
Moon 9:44 PM CST (2/28) 8:06 AM CST (2/28)
Length of Visible Light 12h 09m
Length of Day
11h 14m
Waning Gibbous, 90% of the Moon is Illuminated
Feb 28
Waning Gibbous
Mar 4
Last Quarter
Mar 11
New
Mar 19
First Quarter
Mar 27
Full

Hourly Weather History & Observations

Time (CST) Temp. Windchill Dew Point Humidity Pressure Visibility Wind Dir Wind Speed Gust Speed Precip Events Conditions
12:15 AM 26.6 °F 12.7 °F 23.0 °F 86% 30.06 in 10.0 mi NNW 20.7 mph 32.2 mph N/A   Overcast
12:55 AM 26.6 °F 13.4 °F 23.0 °F 86% 30.07 in 10.0 mi NNW 18.4 mph 27.6 mph N/A   Overcast
1:15 AM 26.6 °F 15.2 °F 23.0 °F 86% 30.08 in 10.0 mi NNW 13.8 mph 21.9 mph N/A   Overcast
1:35 AM 26.6 °F 14.3 °F 23.0 °F 86% 30.08 in 10.0 mi NNW 16.1 mph 24.2 mph N/A   Overcast
1:55 AM 26.6 °F 15.2 °F 23.0 °F 86% 30.08 in 10.0 mi NNW 13.8 mph 21.9 mph N/A   Overcast
2:15 AM 26.6 °F 13.8 °F 23.0 °F 86% 30.08 in 10.0 mi NNW 17.3 mph 28.8 mph N/A   Overcast
2:35 AM 26.6 °F 13.8 °F 23.0 °F 86% 30.08 in 10.0 mi NNW 17.3 mph 23.0 mph N/A   Overcast
2:55 AM 28.4 °F 16.6 °F 23.0 °F 80% 30.08 in 10.0 mi NNW 16.1 mph 23.0 mph N/A   Overcast
3:15 AM 28.4 °F 15.8 °F 23.0 °F 80% 30.08 in 10.0 mi North 18.4 mph - N/A   Overcast
3:55 AM 28.4 °F 16.6 °F 23.0 °F 80% 30.08 in 10.0 mi NNW 16.1 mph 23.0 mph N/A   Overcast
4:35 AM 28.4 °F 16.6 °F 23.0 °F 80% 30.09 in 10.0 mi NNW 16.1 mph 24.2 mph N/A   Overcast
4:55 AM 28.4 °F 18.0 °F 23.0 °F 80% 30.10 in 10.0 mi NNW 12.7 mph 19.6 mph N/A   Overcast
5:15 AM 28.4 °F 17.0 °F 23.0 °F 80% 30.10 in 10.0 mi NNW 15.0 mph 20.7 mph N/A   Overcast
5:35 AM 28.4 °F 17.0 °F 23.0 °F 80% 30.11 in 10.0 mi NW 15.0 mph - N/A   Overcast
5:55 AM 28.4 °F 16.6 °F 23.0 °F 80% 30.12 in 10.0 mi NNW 16.1 mph 24.2 mph N/A   Overcast
6:15 AM 28.4 °F 17.5 °F 23.0 °F 80% 30.12 in 10.0 mi NW 13.8 mph 20.7 mph N/A   Overcast
6:35 AM 28.4 °F 18.0 °F 23.0 °F 80% 30.13 in 10.0 mi NW 12.7 mph 19.6 mph N/A   Overcast
6:55 AM 26.6 °F 15.2 °F 23.0 °F 86% 30.13 in 10.0 mi NNW 13.8 mph 20.7 mph N/A   Overcast
7:15 AM 26.6 °F 15.7 °F 23.0 °F 86% 30.14 in 10.0 mi NNW 12.7 mph - N/A   Overcast
7:35 AM 26.6 °F 16.2 °F 23.0 °F 86% 30.14 in 10.0 mi NNW 11.5 mph 18.4 mph N/A   Overcast
8:15 AM 26.6 °F 14.7 °F 23.0 °F 86% 30.15 in 10.0 mi NNW 15.0 mph - N/A   Overcast
8:35 AM 26.6 °F 16.2 °F 23.0 °F 86% 30.16 in 10.0 mi NNW 11.5 mph 18.4 mph N/A   Overcast
8:55 AM 26.6 °F 15.7 °F 23.0 °F 86% 30.17 in 10.0 mi NNW 12.7 mph 20.7 mph N/A   Overcast
9:15 AM 26.6 °F 15.2 °F 23.0 °F 86% 30.17 in 9.0 mi NNW 13.8 mph 19.6 mph N/A   Overcast
9:35 AM 26.6 °F 15.7 °F 23.0 °F 86% 30.17 in 9.0 mi NNW 12.7 mph 18.4 mph N/A   Overcast
9:55 AM 28.4 °F 18.5 °F 23.0 °F 80% 30.17 in 9.0 mi NNW 11.5 mph - N/A   Overcast
10:15 AM 28.4 °F 18.5 °F 23.0 °F 80% 30.18 in 9.0 mi NW 11.5 mph 18.4 mph N/A   Overcast
10:35 AM 28.4 °F 18.0 °F 23.0 °F 80% 30.17 in 8.0 mi NNW 12.7 mph 21.9 mph N/A   Overcast
10:55 AM 28.4 °F 17.5 °F 23.0 °F 80% 30.17 in 9.0 mi NW 13.8 mph 21.9 mph N/A   Overcast
11:15 AM 28.4 °F 16.6 °F 23.0 °F 80% 30.18 in 9.0 mi NW 16.1 mph - N/A   Overcast
11:35 AM 28.4 °F 16.6 °F 23.0 °F 80% 30.19 in 8.0 mi NNW 16.1 mph 24.2 mph N/A   Overcast
11:55 AM 28.4 °F 19.1 °F 23.0 °F 80% 30.19 in 10.0 mi NW 10.4 mph - N/A   Overcast
12:15 PM 28.4 °F 17.0 °F 23.0 °F 80% 30.19 in 10.0 mi NW 15.0 mph - N/A   Overcast
12:35 PM 28.4 °F 17.0 °F 23.0 °F 80% 30.19 in 10.0 mi NW 15.0 mph - N/A   Overcast
12:55 PM 28.4 °F 18.5 °F 24.8 °F 86% 30.18 in 10.0 mi NW 11.5 mph 18.4 mph N/A   Overcast
1:15 PM 28.4 °F 18.5 °F 24.8 °F 86% 30.17 in 10.0 mi NNW 11.5 mph 19.6 mph N/A   Overcast
1:35 PM 28.4 °F 17.0 °F 23.0 °F 80% 30.17 in 10.0 mi NW 15.0 mph - N/A   Overcast
1:55 PM 30.2 °F 18.1 °F 23.0 °F 75% 30.16 in 10.0 mi NNW 18.4 mph - N/A   Overcast
2:15 PM 30.2 °F 20.8 °F 23.0 °F 75% 30.16 in 10.0 mi NNW 11.5 mph - N/A   Overcast
2:35 PM 30.2 °F 19.3 °F 23.0 °F 75% 30.16 in 10.0 mi NNW 15.0 mph - N/A   Overcast
2:55 PM 30.2 °F 19.3 °F 23.0 °F 75% 30.16 in 10.0 mi NW 15.0 mph - N/A   Overcast
3:15 PM 30.2 °F 19.3 °F 23.0 °F 75% 30.15 in 10.0 mi NNW 15.0 mph 21.9 mph N/A   Overcast
3:35 PM 30.2 °F 20.2 °F 23.0 °F 75% 30.16 in 10.0 mi NNW 12.7 mph - N/A   Overcast
3:55 PM 28.4 °F 18.0 °F 23.0 °F 80% 30.16 in 10.0 mi NW 12.7 mph 19.6 mph N/A   Overcast
4:15 PM 28.4 °F 17.0 °F 23.0 °F 80% 30.17 in 10.0 mi NW 15.0 mph - N/A   Overcast
4:35 PM 28.4 °F 17.5 °F 23.0 °F 80% 30.17 in 10.0 mi NW 13.8 mph - N/A   Overcast
4:55 PM 28.4 °F 17.5 °F 23.0 °F 80% 30.17 in 10.0 mi NW 13.8 mph - N/A   Overcast
5:15 PM 28.4 °F 18.5 °F 23.0 °F 80% 30.17 in 10.0 mi NW 11.5 mph - N/A   Overcast
5:35 PM 28.4 °F 18.5 °F 23.0 °F 80% 30.18 in 10.0 mi NNW 11.5 mph 17.3 mph N/A   Overcast
5:55 PM 28.4 °F 19.7 °F 23.0 °F 80% 30.18 in 10.0 mi NNW 9.2 mph - N/A   Overcast
6:15 PM 28.4 °F 18.0 °F 21.2 °F 74% 30.18 in 10.0 mi NNW 12.7 mph - N/A   Overcast
6:35 PM 28.4 °F 19.1 °F 21.2 °F 74% 30.19 in 10.0 mi NNW 10.4 mph 16.1 mph N/A   Overcast
6:55 PM 28.4 °F 18.5 °F 21.2 °F 74% 30.19 in 10.0 mi NNW 11.5 mph - N/A   Overcast
7:15 PM 26.6 °F 16.2 °F 21.2 °F 80% 30.19 in 10.0 mi NNW 11.5 mph - N/A   Overcast
7:35 PM 26.6 °F 15.7 °F 21.2 °F 80% 30.20 in 10.0 mi NNW 12.7 mph - N/A   Overcast
7:55 PM 28.4 °F 19.7 °F 21.2 °F 74% 30.20 in 10.0 mi NNW 9.2 mph 16.1 mph N/A   Overcast
8:15 PM 26.6 °F 16.2 °F 21.2 °F 80% 30.20 in 10.0 mi NNW 11.5 mph - N/A   Overcast
8:35 PM 26.6 °F 18.2 °F 21.2 °F 80% 30.20 in 10.0 mi NNW 8.1 mph 15.0 mph N/A   Overcast
8:55 PM 26.6 °F 16.2 °F 21.2 °F 80% 30.20 in 10.0 mi NNW 11.5 mph - N/A   Overcast
9:15 PM 26.6 °F 15.2 °F 21.2 °F 80% 30.20 in 10.0 mi NNW 13.8 mph 19.6 mph N/A   Overcast
9:35 PM 26.6 °F 16.2 °F 21.2 °F 80% 30.20 in 10.0 mi NNW 11.5 mph 18.4 mph N/A   Overcast
9:55 PM 26.6 °F 16.2 °F 21.2 °F 80% 30.20 in 10.0 mi NW 11.5 mph - N/A   Overcast
10:15 PM 26.6 °F 16.8 °F 21.2 °F 80% 30.21 in 10.0 mi NW 10.4 mph - N/A   Overcast
10:35 PM 26.6 °F 15.7 °F 21.2 °F 80% 30.20 in 10.0 mi NW 12.7 mph - N/A   Overcast
10:55 PM 26.6 °F 16.2 °F 21.2 °F 80% 30.20 in 10.0 mi NNW 11.5 mph - N/A   Overcast
11:15 PM 24.8 °F 12.9 °F 21.2 °F 86% 30.19 in 10.0 mi NW 13.8 mph - N/A   Overcast
11:35 PM 24.8 °F 14.6 °F 21.2 °F 86% 30.19 in 10.0 mi NNW 10.4 mph 17.3 mph N/A   Overcast